Regional Weather Roundup
Issued by NWS

Home | Current Version | Previous Version | Text Only | Print | Product List | Glossary On
Versions: 1 2 3 4 5 6 7 8 9 10 11 12 13 14 15 16 17 18 19 20 21 22 23 24 25 26 27 28 29 30 31 32 33 34 35 36 37 38 39 40 41 42 43 44 45 46 47 48 49 50
000
ASUS43 KTOP 230508
RWRKS

WEATHER ROUNDUP FOR KANSAS
NATIONAL WEATHER SERVICE GOODLAND KS
1100 PM CST THU FEB 22 2018

NOTE:  "FAIR" INDICATES FEW OR NO CLOUDS BELOW 12,000 FEET WITH NO
SIGNIFICANT WEATHER AND/OR OBSTRUCTIONS TO VISIBILITY.

KSZ001>006-013>018-027>032-041>047-230600-
NORTHWEST KANSAS

CITY           SKY/WX    TMP DP  RH WIND       PRES   REMARKS
GOODLAND       PTCLDY    14  12  92 CALM      30.09R
HAYS           CLOUDY    28  27  96 N10       30.18R FOG     WCI  19
HILL CITY      CLOUDY    24  23  96 CALM      30.16F
RUSSELL        CLOUDY    30  29  96 N9        30.17R FOG
$$

KSZ061>065-074>080-084>089-230600-
SOUTHWEST KANSAS

CITY           SKY/WX    TMP DP  RH WIND       PRES   REMARKS
DODGE CITY     FOG       31  30  96 E3        30.12R VSB 1/4
ELKHART        CLEAR     45  18  33 W13       30.03R
GARDEN CITY    CLOUDY    30  29  96 E8        30.08R
GREAT BEND     MIX PCPN  31  29  92 N5        30.17R FOG
LIBERAL        CLOUDY    26  25  96 S6        30.07R
PRATT          CLOUDY    30  29  96 S3        30.15R FOG
$$

KSZ066>073-081>083-090>101-230600-
SOUTHEAST KANSAS

CITY           SKY/WX    TMP DP  RH WIND       PRES   REMARKS
CHANUTE        CLOUDY    34  33  96 S3        30.21R FOG
COFFEYVILLE    CLOUDY    35  35 100 CALM      30.22S FOG
HUTCHINSON     CLOUDY    31  31 100 CALM      30.16F FOG
MEDICINE LODGE   N/A     30  29  96 CALM      30.17R
NEWTON         CLOUDY    30  30 100 W6        30.18R FOG
PARSONS        CLOUDY    34  34 100 CALM      30.22S FOG
WICHITA INTL   CLOUDY    32  32 100 SW3       30.18R
WICHITA JABRA  CLOUDY    31  31 100 SW5       30.18S
WICHITA MCCONL CLOUDY    32  31  99 CALM      30.18S
WINFIELD       CLOUDY    32  32 100 SW6       30.21R FOG
$$

KSZ007>012-019>026-033>040-048>060-102>105-230600-
NORTHEAST KANSAS

CITY           SKY/WX    TMP DP  RH WIND       PRES   REMARKS
CONCORDIA      CLOUDY    30  30 100 NW5       30.17S
EMPORIA        CLOUDY    32  31  96 CALM      30.18R FOG
LAWRENCE       CLOUDY    33  33 100 CALM      30.19R FOG
MANHATTAN      CLOUDY    33  32  96 CALM      30.19S FOG
MARYSVILLE     CLOUDY    32  32 100 CALM      30.17F FOG
OLATHE IND     CLOUDY    32  32 100 NW3       30.19S FOG
OLATHE EXE     CLOUDY    32  32 100 NW3       30.18S FOG
SALINA         CLOUDY    32  32 100 CALM      30.19S FOG
TOPEKA BILLARD MIX PCPN  33  33 100 CALM      30.19R FOG
TOPEKA FORBES  CLOUDY    34  32  92 W3        30.18R FOG
$$




USA.gov is the U.S. government's official web portal to all federal, state and local government web resources and services.